sat.trackr.live / text

‹ back to catalog

STARLINK-11192 [DTC]

NORAD 60308 · 2024-133H

PAYLOAD ACTIVE UNKNOWN

§ Identity

Operator
Country
US
Launch date
2024-07-28
Launch site
AFWTR
Launch vehicle
Mass (kg)
RCS (m²)

Purposes: comms

External: N2YO · Heavens-Above · Gunter

§ Orbital elements

Epoch: 2026-05-25T03:25:55.964640Z

Period
91.74 min
Inclination
53.1588°
Eccentricity
0.0001161
Mean motion
15.69705238 rev/d
Perigee alt
359.0 km
Apogee alt
360.5 km
Semi-major
6,737.9 km
B*
1.1850e-5
RAAN
129.2068°
Arg perigee
59.2740°
Mean anomaly
300.8392°
Rev number
10,574

§ Raw data

STARLINK-11192 [DTC]1 60308U 24133H   26145.14300885  .00000847  00000+0  11850-4 0  99942 60308  53.1588 129.2068 0001161  59.2740 300.8392 15.69705238105741

JSON: /api/v1/satellites/60308 · /tle

For live sub-satellite position, see the globe view (requires WebGL).

§ Visibility from observer

Set your observer location to see the next 7 days of passes ≥ 10°. The values pass through the URL so the page stays shareable.

No JS? Fill the form by hand. The geolocation button needs JavaScript.